GEFSMW_500_meanwind_228.txt.gz
Wind_Speed
14 14 14 14 15 15 14 14 15 14 14 14 14 14 14 14 15 15 14 14 13 13 13 12 12 13 12 13 13 12 11 12 11 10 10 9 9 10 10 10 10 10 10
14 15 14 15 15 15 15 15 15 14 14 14 14 14 15 15 15 14 14 14 14 14 13 12 13 13 13 13 13 12 12 11 11 10 10 10 10 10 10 10 10 10 10
15 15 14 14 14 14 15 16 15 15 15 15 15 16 15 15 15 14 14 14 14 13 13 13 13 13 13 13 12 12 11 11 12 11 11 11 10 10 11 11 11 11 11
15 15 15 15 14 14 14 15 15 16 16 15 16 16 15 15 15 15 14 14 14 14 14 14 14 14 13 13 13 12 12 12 12 12 12 11 11 11 11 11 11 11 12
15 15 15 15 14 14 15 15 14 15 15 15 15 15 15 14 14 14 14 14 14 14 14 14 14 14 13 13 12 12 12 12 12 13 12 12 12 12 12 12 12 12 12
15 15 15 16 16 15 15 14 14 14 15 14 15 15 15 15 14 13 14 14 14 14 14 14 14 14 14 14 13 13 13 13 13 13 12 12 13 13 13 13 12 12 12
16 16 16 16 16 16 15 14 14 14 14 15 15 15 15 15 15 14 14 14 14 14 14 15 14 15 15 15 14 13 14 14 14 13 13 13 13 13 13 13 13 13 12
15 15 15 15 15 15 15 14 15 15 15 14 15 15 15 16 15 14 15 15 15 15 15 15 15 15 15 15 15 15 15 14 14 14 14 14 14 13 13 13 13 13 13
14 14 15 15 15 15 15 15 15 15 15 15 15 15 15 15 15 14 15 15 15 15 15 15 15 15 15 15 15 14 14 14 14 14 14 14 14 13 13 12 12 12 13
14 13 14 14 14 15 15 15 16 16 16 16 16 15 15 16 16 15 15 15 16 15 15 16 16 15 15 15 15 15 15 15 14 14 14 14 14 13 13 13 12 13 13
14 14 14 14 15 15 16 16 16 17 17 16 16 15 15 16 16 16 16 16 16 16 16 17 16 15 16 15 15 15 15 15 14 14 14 14 14 13 13 13 13 14 14
14 14 14 15 15 15 16 16 16 16 16 16 16 16 16 16 16 17 17 17 17 17 17 17 17 16 16 15 15 15 15 15 14 14 14 15 15 14 14 14 14 14 13
14 14 14 14 14 15 16 16 16 16 16 16 16 16 16 15 15 16 16 16 17 17 16 17 17 16 16 16 16 15 15 15 15 14 14 14 14 14 14 13 13 13 13
15 15 15 14 14 15 16 16 16 16 16 16 15 16 16 16 16 15 16 16 16 16 16 16 16 16 17 17 16 16 15 15 14 14 13 13 14 13 13 13 13 12 12
15 15 15 14 15 15 15 16 16 16 16 16 16 15 15 16 16 16 16 15 15 15 16 17 16 16 16 16 16 16 15 15 14 14 14 14 13 14 13 13 12 12 12
15 15 15 15 15 15 15 16 16 16 16 16 16 15 15 15 15 16 16 15 15 16 16 16 16 16 16 16 16 16 15 15 15 15 15 14 14 14 14 13 13 13 14
16 16 15 15 15 15 15 15 15 16 16 16 16 16 15 15 15 15 15 16 16 15 15 16 15 16 16 16 16 16 15 15 15 15 15 14 14 14 14 14 14 14 15
16 16 16 16 15 15 15 15 15 15 16 16 15 15 16 16 16 15 14 14 15 15 15 15 15 15 16 16 16 16 16 16 16 16 16 15 14 14 15 15 15 15 15
16 16 17 16 15 15 15 15 15 15 15 15 14 15 15 14 14 14 14 14 15 15 15 14 14 15 15 16 16 16 16 16 16 16 16 15 15 15 16 16 15 15 16
15 15 16 16 15 15 15 15 14 14 14 14 14 14 14 14 14 14 14 14 14 14 14 14 14 14 15 16 16 16 16 16 16 16 15 15 15 16 16 16 16 16 16
16 16 16 16 16 15 15 14 14 13 14 14 14 14 14 14 14 14 14 14 14 14 14 14 14 14 15 16 16 17 17 17 16 16 16 16 17 17 16 16 16 16 17
17 17 16 16 16 16 16 15 15 14 14 15 14 14 15 15 15 15 14 14 14 14 14 14 14 15 16 16 17 17 17 17 17 17 17 17 18 18 17 18 18 18 18
18 17 17 17 17 17 17 16 16 16 16 15 15 15 16 16 15 15 15 15 14 14 14 14 15 15 16 16 16 17 17 17 17 18 18 19 19 18 19 19 19 19 19
19 19 18 18 18 17 17 17 17 17 16 16 16 16 17 17 17 16 16 15 15 15 16 15 15 15 16 16 17 17 18 18 19 20 20 20 20 19 19 20 20 20 20
20 20 19 19 19 18 18 18 18 17 18 18 17 17 18 18 18 17 17 17 17 17 17 16 16 16 16 17 18 19 19 19 20 20 20 20 19 19 20 20 21 22 22
21 21 20 20 20 20 19 19 19 19 19 18 18 18 18 18 19 18 18 18 18 18 18 18 18 18 18 18 18 19 20 20 20 20 20 20 20 20 21 21 22 23 24

GEFSMW_500_meanwind_234.txt.gz
Wind_Speed
15 14 15 15 15 15 14 14 14 14 14 14 14 14 14 14 14 13 13 14 15 15 14 14 13 13 13 13 12 13 13 12 12 12 12 12 11 11 11 11 10 10 10
15 15 15 15 16 15 15 15 15 15 15 15 14 14 14 13 13 13 13 13 14 14 14 13 13 13 13 13 13 13 13 13 13 12 12 12 11 12 11 11 11 11 11
15 15 16 15 16 15 16 16 15 15 14 13 13 13 13 13 13 13 14 14 14 14 13 13 13 13 13 13 14 14 14 14 13 13 12 12 11 12 12 12 12 12 12
15 15 15 16 16 15 16 15 15 14 14 14 13 13 13 13 13 14 14 14 13 13 13 12 12 13 13 13 13 14 13 13 13 13 13 13 13 13 13 13 13 13 13
15 15 15 16 16 16 15 15 15 15 14 13 13 14 13 14 14 14 14 14 13 13 13 12 13 13 13 13 13 13 13 14 14 14 13 13 14 14 14 14 14 14 14
16 16 16 16 16 16 16 15 15 14 14 13 13 14 14 14 14 13 13 13 13 13 13 13 13 13 13 13 13 13 13 13 14 14 13 14 14 15 15 14 14 14 14
16 17 16 16 16 16 15 14 14 14 14 14 14 14 14 13 13 13 14 14 14 13 13 13 13 13 13 13 14 13 13 13 13 13 14 14 14 14 15 15 15 14 14
16 16 16 16 15 15 15 14 14 14 14 14 14 15 14 14 14 14 14 14 14 14 14 13 13 13 13 13 14 14 13 13 13 14 14 14 14 14 15 15 15 15 15
16 16 16 15 15 15 15 15 15 15 15 15 16 16 15 14 15 15 15 15 14 14 14 13 13 14 14 14 14 14 13 14 14 15 15 15 15 14 15 15 16 16 16
15 15 15 15 15 14 14 15 15 15 15 15 16 16 15 15 15 15 15 15 15 15 15 15 15 15 15 15 16 15 15 15 15 15 15 15 15 14 15 15 15 16 16
16 16 16 16 16 15 15 15 15 15 15 15 15 16 16 16 15 15 15 15 15 16 16 16 15 15 16 16 15 15 16 16 16 16 16 16 15 15 15 15 15 15 15
17 17 17 17 17 16 15 15 15 15 15 15 16 16 17 16 16 16 16 16 15 16 16 16 15 15 16 16 16 15 16 16 16 16 17 16 16 15 15 15 15 15 15
19 18 18 18 18 17 16 16 15 15 15 16 16 16 17 17 17 17 17 17 17 17 16 16 16 16 16 16 16 16 16 16 16 17 17 16 16 15 15 16 16 15 15
19 19 19 18 18 17 17 17 16 16 16 16 16 16 17 17 17 17 17 17 17 16 16 16 16 16 16 17 17 16 16 16 16 16 16 15 16 16 15 15 15 15 15
19 19 18 18 18 17 17 17 16 16 16 16 16 15 16 16 16 17 17 16 16 16 16 16 16 17 17 17 17 16 16 16 16 16 15 15 16 16 15 15 15 14 15
19 18 18 18 18 17 17 17 16 16 15 15 16 16 15 16 16 16 15 15 16 16 16 16 16 16 17 17 17 16 15 14 15 15 15 16 16 16 16 16 16 15 16
19 18 18 18 17 17 17 17 17 16 16 16 16 15 15 16 16 15 15 15 15 15 16 16 16 16 17 16 16 16 17 16 16 16 16 16 16 17 17 17 17 17 16
20 19 18 18 17 16 16 17 17 17 17 17 17 16 16 15 14 14 14 15 16 16 16 16 16 16 16 16 16 17 17 17 16 16 17 17 17 17 16 16 16 15 16
20 19 19 18 17 17 17 17 17 17 17 17 17 16 15 15 14 14 14 15 16 16 16 16 15 16 16 15 16 16 16 16 17 17 17 17 17 17 16 16 16 16 16
20 19 18 18 18 18 18 18 17 17 17 17 17 16 16 16 15 14 14 15 16 16 15 15 15 16 16 16 16 16 16 16 17 17 17 16 17 17 17 18 17 17 17
20 19 19 18 18 18 18 18 17 17 17 16 16 17 17 16 15 15 15 15 16 16 15 15 15 15 15 15 15 16 16 16 16 17 17 17 17 18 18 17 17 17 18
21 20 20 19 18 18 18 18 18 17 17 17 17 17 17 17 17 17 16 16 16 15 16 16 16 15 15 15 16 17 17 17 17 17 18 18 19 18 18 18 18 18 19
21 21 21 21 20 20 19 19 18 18 18 18 18 18 19 19 19 18 18 17 17 17 17 17 18 17 17 16 17 17 17 18 18 18 18 19 19 19 19 19 19 20 20
23 22 22 22 21 21 20 20 19 19 19 19 19 19 20 20 20 20 20 19 19 19 19 19 19 19 18 18 18 18 18 18 18 19 19 19 20 19 19 20 20 21 21
24 24 24 23 22 22 21 21 21 21 20 20 20 20 21 20 20 21 21 21 21 21 21 21 20 20 20 20 20 20 20 20 20 20 20 19 20 20 21 21 22 23 23
25 25 24 24 23 23 23 23 22 22 22 22 21 21 21 21 21 21 21 21 22 22 22 22 22 21 22 22 22 22 22 22 21 21 21 21 21 21 22 23 24 24 25

GEFSMW_500_meanwind_240.txt.gz
Wind_Speed
11 10 11 11 11 12 12 12 11 11 12 12 12 12 12 12 12 12 12 11 11 11 12 12 12 12 12 12 13 12 12 13 13 12 12 11 11 11 12 11 10 10 10
11 11 11 11 11 11 11 11 11 11 11 12 11 12 12 12 12 12 12 12 12 11 12 12 12 12 12 12 13 13 13 13 13 12 12 12 12 11 11 10 11 11 11
11 11 11 11 11 11 11 11 12 12 12 12 12 12 11 12 12 12 12 12 12 12 12 13 13 12 12 12 13 13 13 13 12 12 12 12 12 12 11 11 11 11 12
11 10 10 10 11 11 11 11 12 12 13 13 13 12 12 12 11 11 12 13 13 13 13 13 13 12 12 12 12 12 13 13 12 12 12 12 12 12 11 12 12 12 13
11 11 11 11 11 11 12 12 12 13 13 13 13 12 12 12 12 12 13 13 13 13 13 13 13 13 12 13 13 13 13 13 13 12 12 12 12 12 12 12 12 13 13
11 11 11 11 11 11 12 12 12 12 12 12 12 12 12 13 13 13 13 13 13 13 13 13 14 13 13 13 13 12 12 13 13 13 13 13 12 12 12 12 13 13 14
11 12 11 11 12 12 12 12 12 12 12 12 12 12 12 12 13 13 13 13 13 14 15 15 14 13 12 13 12 12 12 12 13 13 13 12 12 13 13 13 13 14 14
12 12 12 12 12 13 13 12 12 12 12 12 11 12 12 12 12 13 13 13 14 14 13 13 13 13 12 13 13 13 12 12 13 13 13 13 13 13 13 14 14 15 14
13 13 14 13 13 13 13 13 13 13 13 12 12 12 12 12 13 13 13 13 14 14 13 13 13 13 12 12 13 13 13 13 13 14 14 13 14 14 14 14 14 14 14
13 13 13 13 12 13 13 13 14 14 13 13 13 13 13 13 14 13 13 14 14 14 14 14 14 14 13 13 13 12 13 13 14 14 13 14 14 14 14 14 14 15 15
13 13 14 14 13 13 14 14 14 14 14 14 14 14 14 14 14 14 14 14 15 15 14 14 15 14 15 14 13 13 13 14 14 14 14 14 13 14 14 15 15 15 15
14 14 14 14 14 15 14 14 14 14 14 14 14 14 14 14 14 14 14 15 15 16 16 15 15 15 15 15 14 14 14 14 14 13 13 13 13 14 14 15 14 14 14
15 15 16 16 15 15 14 14 15 15 15 14 14 14 14 14 14 14 15 15 16 16 16 15 15 15 15 15 15 15 15 15 14 13 13 14 14 15 15 15 15 15 14
16 16 16 16 16 16 15 15 15 15 15 15 15 15 15 15 15 15 15 16 16 17 16 16 15 15 15 16 15 16 16 15 15 15 14 15 15 15 16 16 16 15 15
16 16 16 16 16 16 15 15 16 16 17 16 16 16 16 16 15 15 16 15 15 15 15 16 16 16 16 17 16 16 16 16 16 16 15 15 15 15 16 16 16 16 16
18 17 16 16 17 17 17 16 16 17 17 17 17 16 16 16 16 16 16 16 16 16 16 16 16 16 16 16 16 17 17 17 16 16 16 16 16 16 16 16 16 16 16
18 17 17 17 16 17 17 17 17 17 17 17 17 17 17 17 17 17 16 16 16 16 16 16 16 16 16 16 16 16 16 16 16 16 16 16 17 17 17 17 17 16 16
18 18 18 17 17 17 17 17 17 16 17 17 16 17 17 18 17 17 16 16 17 17 17 16 15 16 16 16 16 16 16 16 16 15 16 16 16 16 16 16 16 16 16
19 18 18 18 18 18 18 18 17 16 17 17 17 17 18 18 18 17 16 16 16 16 16 16 16 17 16 16 16 16 16 16 16 17 17 16 16 16 16 16 17 16 16
20 19 19 19 19 18 18 18 18 17 17 17 17 18 18 19 18 18 17 17 17 17 16 17 16 16 17 16 16 16 16 16 17 17 17 17 17 17 17 17 16 16 16
20 20 20 20 19 19 18 18 18 18 17 17 17 18 18 19 19 18 18 18 17 17 17 17 16 16 16 16 16 16 16 17 17 18 17 17 17 17 17 17 17 17 17
21 21 21 20 20 19 19 19 19 19 19 18 18 18 19 19 20 20 19 19 18 18 17 17 17 17 17 18 18 18 18 18 18 18 18 18 17 18 18 18 18 18 18
22 21 21 21 21 21 21 21 20 20 19 19 20 20 20 20 20 20 21 20 20 20 19 19 19 19 19 19 19 19 19 20 19 19 19 19 19 19 19 20 19 19 19
23 22 23 23 22 22 23 22 22 21 21 21 21 21 21 22 21 21 22 22 21 21 21 21 20 20 20 20 21 20 20 21 21 21 20 19 20 20 20 21 21 20 20
25 24 24 24 23 23 23 23 23 22 22 22 22 22 22 23 23 23 22 22 23 23 22 22 22 22 21 21 22 22 22 22 22 22 21 21 21 21 21 21 21 22 22
26 26 25 25 24 24 24 24 24 24 24 23 23 23 23 23 24 24 24 24 24 24 24 23 24 23 23 23 23 23 24 24 24 24 23 23 23 22 23 23 23 23 23

GEFSMW_500_meanwind_246.txt.gz
Wind_Speed
12 12 11 11 11 11 12 11 11 11 11 11 11 11 11 11 11 12 12 12 12 12 13 12 12 12 12 12 13 13 13 12 12 12 13 13 13 13 12 12 12 11 11
12 12 11 11 11 11 11 11 11 11 11 10 11 11 11 12 12 12 12 12 12 13 13 13 13 12 12 13 13 13 14 14 13 13 13 13 13 13 13 13 12 12 12
11 12 12 11 11 11 12 12 12 12 12 12 12 12 12 12 12 12 12 12 12 12 13 13 12 12 13 13 14 14 14 13 13 13 12 12 12 12 12 12 12 12 12
11 11 11 12 12 11 11 12 13 13 13 13 13 13 13 12 12 12 12 12 12 11 11 12 12 13 13 14 14 14 13 14 14 13 13 12 12 12 12 13 13 13 13
11 12 12 12 12 12 12 12 12 13 12 13 14 14 13 13 12 12 12 12 12 11 11 11 12 12 13 14 14 13 13 14 13 13 13 13 12 13 13 13 13 13 13
12 12 12 12 13 13 13 13 13 13 13 13 13 13 13 13 12 12 12 12 12 12 12 11 12 12 12 13 13 13 14 14 13 13 13 13 13 13 13 13 13 13 13
14 13 13 13 13 14 14 14 13 14 14 14 13 13 13 13 12 12 12 13 13 13 12 12 13 13 13 13 13 13 13 14 13 13 13 13 13 13 13 13 13 13 13
15 15 14 14 14 14 14 14 14 14 14 14 14 14 13 13 12 12 12 13 14 13 13 13 14 13 14 14 14 13 13 13 13 13 13 13 13 13 13 13 13 13 13
15 15 15 14 14 14 14 14 15 15 15 14 14 14 13 12 12 12 12 13 13 14 13 13 14 14 14 14 14 14 14 13 13 13 13 13 13 13 13 13 13 13 13
15 15 15 15 15 15 15 15 15 15 15 15 15 14 14 13 13 13 13 13 14 14 15 15 15 15 14 14 15 15 15 14 14 14 14 14 14 14 14 14 14 14 15
15 15 15 15 15 15 15 15 15 15 15 15 15 15 14 14 14 14 15 15 15 16 16 16 16 15 15 15 16 16 16 15 15 15 16 16 15 14 14 14 14 15 15
16 15 16 16 16 16 15 15 15 15 15 15 15 15 14 14 15 15 15 16 16 17 17 17 17 17 16 16 16 16 16 16 16 16 16 16 16 15 15 15 15 16 16
17 16 16 16 17 17 16 16 15 15 15 15 15 16 16 16 16 16 16 16 17 17 17 17 18 18 18 17 17 17 16 16 16 16 16 16 16 15 15 15 16 16 16
18 18 18 18 17 17 17 16 15 15 15 16 16 16 17 17 17 17 17 17 18 18 18 18 19 19 18 17 17 16 16 16 17 17 17 17 16 16 15 15 16 17 16
19 19 20 18 18 18 18 18 17 17 17 17 17 18 18 18 18 18 18 18 18 18 18 19 19 19 18 17 17 17 16 16 17 17 17 17 16 16 15 15 16 16 16
20 20 20 19 18 17 17 18 18 18 18 19 19 19 19 19 19 19 19 19 19 19 18 18 18 18 18 17 17 17 17 17 17 17 17 17 17 16 16 16 16 17 17
21 21 20 20 20 19 18 18 19 19 19 20 20 20 20 20 20 20 20 20 20 19 18 19 19 18 18 18 18 18 18 17 17 17 17 16 16 16 17 17 17 17 17
22 21 21 21 20 20 20 19 19 19 20 20 20 20 21 21 21 21 21 21 20 20 19 19 19 19 19 19 19 19 18 18 18 18 16 16 17 18 18 18 18 18 18
23 22 22 22 22 21 21 21 20 20 20 21 21 21 21 21 21 21 21 21 21 20 19 19 19 18 18 19 19 19 19 19 19 18 17 17 18 18 19 19 19 19 19
23 23 23 22 22 22 21 21 21 21 20 20 20 20 20 20 20 20 20 20 21 20 20 20 19 19 18 18 19 19 19 19 19 19 19 19 20 20 20 20 20 19 19
23 23 23 23 23 23 22 22 22 21 21 20 20 19 19 19 20 20 20 21 21 21 21 21 20 20 19 18 18 19 19 19 19 20 20 21 21 21 20 20 20 20 20
24 24 23 23 23 22 22 23 23 21 21 20 20 19 19 19 20 20 20 20 21 21 21 21 21 21 21 20 20 20 20 20 21 21 21 22 22 22 22 22 21 21 21
24 24 23 23 22 22 22 23 22 22 21 21 20 20 21 21 21 21 21 21 22 22 22 23 23 23 22 22 22 21 22 22 22 22 22 22 22 22 22 23 23 22 22
23 23 23 23 23 23 23 23 23 23 23 22 22 22 22 22 23 22 22 23 23 23 23 23 23 23 23 23 22 22 22 23 22 23 23 23 23 23 23 23 24 24 24
24 24 24 24 24 24 24 24 24 24 24 24 24 24 24 24 23 23 23 23 23 23 23 24 24 24 23 23 24 24 24 24 24 24 24 24 24 25 25 24 25 26 26
25 25 25 25 25 26 25 25 25 25 25 25 25 25 25 25 25 25 25 25 25 25 25 25 24 24 25 25 25 25 25 26 26 26 25 25 26 26 26 26 26 27 27

GEFSMW_500_meanwind_252.txt.gz
Wind_Speed
13 13 13 13 14 14 14 13 13 13 13 13 13 13 13 13 13 13 14 13 13 13 13 12 12 11 11 11 11 12 12 12 12 11 12 12 12 12 12 12 12 12 12
13 13 12 13 13 14 14 14 13 13 13 13 13 13 13 13 13 13 13 13 13 13 12 11 11 11 12 12 12 12 12 12 12 12 13 13 12 12 12 12 12 12 12
12 13 13 13 14 13 13 13 13 13 13 13 13 12 13 13 12 12 12 11 12 12 12 11 11 11 12 12 12 12 12 12 13 12 12 12 12 12 12 12 12 13 13
13 13 13 14 14 14 14 14 14 13 13 13 12 13 12 12 12 11 11 11 12 11 11 10 11 11 11 11 12 12 12 12 12 11 11 11 11 11 12 12 13 13 14
13 14 14 15 15 15 15 15 15 14 14 14 14 13 13 13 13 12 12 12 12 11 11 11 11 11 11 11 11 12 12 12 12 11 11 11 11 12 12 13 13 14 14
14 14 15 15 15 15 15 15 15 15 15 14 14 14 13 13 12 12 12 12 11 10 10 10 11 11 11 12 12 12 12 12 12 12 11 11 12 12 13 13 14 14 14
14 15 15 15 15 15 15 16 16 16 16 15 15 15 14 14 13 13 12 12 11 11 11 11 11 11 12 12 13 14 13 13 12 12 12 12 12 13 13 13 13 13 13
14 15 15 16 16 16 16 16 17 16 15 15 15 15 14 14 14 13 12 12 12 12 12 12 12 13 13 14 14 14 14 13 12 12 12 13 13 13 13 13 13 13 14
14 15 16 16 16 16 16 17 17 17 16 16 16 15 15 14 14 13 13 13 14 14 14 14 14 14 15 15 14 15 15 13 13 13 13 13 13 13 13 13 14 13 13
15 16 16 16 16 17 17 17 16 16 16 16 16 16 15 15 14 14 14 15 14 14 15 16 16 16 16 16 15 15 14 14 14 14 14 14 14 14 14 14 15 14 14
15 16 17 17 17 17 17 18 17 17 17 17 17 16 16 15 15 14 15 15 15 15 16 16 17 16 16 16 16 15 15 15 15 15 15 15 15 15 14 14 15 14 14
17 17 17 17 17 17 17 18 18 17 17 17 17 16 16 16 15 15 16 16 17 17 16 16 17 17 17 16 16 16 16 16 16 16 16 16 16 16 16 15 15 15 15
18 18 18 18 18 18 18 18 17 17 17 16 16 16 17 17 17 17 17 18 18 18 17 17 18 18 18 18 17 17 17 17 17 17 17 17 17 17 16 16 16 16 16
19 19 19 19 18 18 18 18 17 17 17 17 17 17 17 18 18 18 18 18 18 18 19 19 19 19 19 19 18 18 18 18 18 18 18 17 17 17 17 17 17 16 16
20 20 19 19 19 19 19 19 18 17 17 17 17 18 19 19 19 19 19 20 20 20 20 19 19 19 19 19 19 19 19 19 18 18 18 18 18 18 17 17 17 17 17
21 21 20 20 20 20 20 19 19 19 19 19 19 19 20 20 20 20 20 20 20 20 20 20 20 20 19 19 19 19 19 19 19 19 19 19 19 19 18 18 17 17 17
21 21 21 21 21 21 20 20 20 20 20 20 20 20 21 21 21 21 21 21 21 21 21 20 20 20 20 19 19 19 19 19 19 19 19 19 19 19 19 19 19 18 18
20 21 21 21 22 22 21 21 21 20 20 20 20 20 21 21 21 21 21 21 21 21 21 20 20 20 20 20 20 19 19 19 20 20 20 20 20 20 20 19 19 19 19
22 22 22 22 22 22 22 21 21 21 21 21 21 20 20 21 21 20 20 20 20 21 21 20 20 20 20 20 20 21 21 21 21 20 20 20 20 20 20 19 19 19 19
22 22 22 22 22 22 22 22 21 22 22 22 22 22 21 21 21 21 20 20 20 21 21 21 21 21 20 20 20 20 20 20 20 21 21 21 21 21 21 20 19 20 20
23 23 23 22 22 22 22 22 22 22 22 22 22 22 22 21 21 21 20 21 21 21 21 22 22 21 21 20 21 21 21 21 21 21 21 21 21 21 20 20 20 20 20
23 23 22 22 22 22 22 22 22 22 22 22 22 22 21 21 21 21 21 21 22 22 22 22 22 21 21 21 21 21 21 21 21 21 21 20 20 20 21 21 22 21 21
22 22 22 21 21 22 22 22 23 23 22 22 22 22 22 22 22 22 22 22 22 23 23 22 22 22 22 22 22 22 22 22 22 22 21 21 21 21 21 21 22 23 23
22 21 22 22 22 22 22 23 24 24 24 23 23 23 22 22 23 23 24 23 23 24 23 23 23 23 23 23 23 23 23 23 23 24 24 24 24 24 24 23 23 24 24
22 23 23 23 23 23 23 24 24 25 25 26 25 25 24 24 24 24 24 24 24 24 24 24 24 24 24 24 24 24 24 24 24 25 25 25 25 25 25 26 25 25 25
23 23 24 24 25 25 25 25 25 25 26 27 27 27 26 26 26 26 26 26 25 25 25 25 25 25 26 25 25 26 25 25 25 25 25 25 25 25 25 26 26 26 26

GEFSMW_500_meanwind_258.txt.gz
Wind_Speed
15 15 15 15 15 15 15 16 16 15 15 15 15 16 16 15 15 14 14 13 13 14 13 13 14 13 13 12 12 12 12 12 12 13 13 13 13 13 13 13 13 13 12
14 15 16 16 16 16 15 15 15 16 15 15 16 15 15 15 14 14 13 13 13 13 13 14 14 14 13 12 12 12 12 12 12 12 13 13 13 13 13 13 12 12 12
15 15 16 16 16 16 16 15 15 16 16 16 16 16 15 15 14 13 13 13 12 12 13 14 14 14 13 12 12 12 12 12 12 12 12 12 12 12 12 13 13 13 12
15 16 16 16 16 16 16 16 16 16 16 16 16 16 15 15 15 14 13 13 13 13 14 14 13 13 13 13 12 12 12 12 11 12 12 12 12 13 13 13 13 13 13
15 15 15 16 16 16 16 16 16 16 16 16 16 16 15 15 14 14 13 13 13 14 14 13 13 13 13 13 13 12 12 12 12 12 12 13 13 13 13 13 13 13 13
16 16 16 16 16 16 17 17 16 16 16 16 16 16 15 14 14 14 14 14 14 14 13 13 13 13 13 12 12 13 13 13 13 13 13 14 14 13 13 13 14 14 14
16 16 17 17 17 17 17 16 16 17 16 16 16 16 15 15 14 14 14 14 15 15 14 14 14 13 13 13 13 13 13 13 13 13 14 15 15 13 14 14 14 14 13
18 17 17 17 17 17 17 17 17 17 17 16 16 16 16 15 14 14 15 15 16 16 15 15 15 14 14 13 13 14 14 14 14 15 15 15 15 15 15 15 14 13 14
19 18 18 17 17 18 18 17 18 18 18 17 17 17 16 15 15 16 16 16 16 16 16 15 15 15 15 15 14 14 15 15 15 16 15 15 15 15 14 14 14 14 14
19 20 19 19 19 19 19 19 19 18 18 18 18 17 17 17 17 17 17 18 17 17 17 16 16 16 16 16 15 16 16 16 16 16 16 16 16 15 14 14 14 15 15
21 21 20 19 19 19 19 19 19 19 19 18 18 19 18 18 18 18 18 18 18 18 18 18 18 18 17 17 16 16 17 17 17 17 17 17 16 16 15 15 15 15 16
21 21 22 21 20 19 19 19 19 19 19 19 20 20 19 19 19 19 19 19 18 18 19 19 19 18 18 17 18 18 18 18 17 17 18 17 17 17 16 16 16 16 16
22 22 22 21 20 20 20 19 19 19 19 19 20 20 20 20 20 19 19 20 19 19 19 19 19 18 18 18 19 18 18 18 18 18 18 18 18 18 18 17 17 17 17
22 22 21 21 21 20 20 20 20 19 19 19 19 20 20 19 19 19 19 19 20 19 20 20 19 19 19 19 19 19 18 19 19 20 19 20 19 19 19 18 17 17 17
23 22 21 21 21 21 20 20 20 20 19 19 19 19 19 19 19 20 20 20 20 20 20 20 20 21 20 20 20 20 20 19 19 20 20 20 20 19 19 18 18 18 17
23 23 22 22 22 22 22 21 21 21 20 20 20 19 19 20 20 20 20 21 21 21 21 21 21 21 21 20 21 21 21 20 20 20 20 20 20 20 19 18 18 18 18
24 24 24 23 22 23 23 22 22 22 21 20 20 20 20 20 21 21 21 21 21 22 22 22 21 21 21 21 22 22 22 21 21 20 19 19 19 20 19 19 20 19 19
24 24 25 24 23 23 23 23 23 23 22 21 21 21 21 21 22 21 22 22 22 22 22 22 22 22 22 23 23 22 22 22 21 21 21 20 20 20 20 20 20 19 19
24 24 24 25 24 24 24 23 23 23 22 22 22 23 23 23 22 22 22 22 22 22 23 23 22 22 22 22 22 23 22 21 21 21 21 21 21 21 21 21 20 20 20
24 24 25 25 25 24 24 24 23 23 23 23 23 23 23 23 23 23 24 24 23 23 22 22 22 22 22 23 23 23 22 22 22 22 22 22 21 21 21 21 20 20 20
25 25 24 25 25 24 24 24 24 24 24 24 24 24 24 24 24 24 24 24 24 24 23 23 23 24 24 24 24 24 23 23 23 23 23 23 22 22 22 21 21 21 21
25 25 24 24 24 23 24 24 24 24 24 24 24 24 24 24 24 25 25 25 24 24 24 25 25 25 25 25 25 25 25 24 24 24 24 23 23 23 23 22 22 22 22
26 26 25 25 23 22 23 23 24 24 24 23 24 24 25 25 25 25 25 24 25 25 25 26 26 26 26 26 26 26 26 26 25 25 24 24 24 24 24 23 23 23 23
27 26 25 24 23 23 23 23 24 24 23 23 23 24 24 25 25 25 25 25 26 26 26 26 26 27 27 27 28 27 27 27 26 26 25 25 25 25 25 24 24 24 24
27 26 26 25 24 23 23 23 24 24 24 24 24 25 25 26 25 25 25 25 26 26 26 26 26 26 27 27 27 28 28 27 27 27 26 26 26 26 26 26 26 26 26
27 27 27 26 25 24 24 24 24 25 25 25 26 26 26 26 25 25 24 25 25 25 25 26 26 26 26 27 27 28 28 28 28 27 27 27 27 27 27 27 26 26 26

GEFSMW_500_meanwind_264.txt.gz
Wind_Speed
12 12 12 13 13 14 14 14 14 14 14 14 14 14 14 14 13 13 12 12 12 12 13 13 13 13 12 13 12 12 12 11 11 11 11 11 12 12 12 12 12 12 12
12 12 12 13 14 14 14 14 14 14 14 14 14 13 13 13 12 12 11 11 11 11 12 13 13 13 12 13 12 11 11 11 11 11 11 11 11 11 12 12 12 12 12
12 12 12 12 13 13 13 13 14 13 13 13 13 13 13 13 13 12 12 11 11 11 12 12 12 12 12 12 12 11 11 11 11 11 12 11 11 11 11 12 12 12 12
13 13 13 13 13 13 13 14 13 13 13 13 13 13 14 13 13 13 13 12 12 12 13 13 12 12 12 12 11 11 11 11 11 12 12 12 12 12 12 12 13 13 14
13 13 14 14 14 13 14 14 14 14 13 13 13 14 14 14 14 14 14 13 14 13 13 13 12 12 12 12 11 11 12 12 12 11 12 13 13 13 13 13 13 13 14
14 14 15 15 15 15 15 14 14 15 14 14 14 14 14 14 14 14 14 14 13 13 13 13 13 12 12 12 12 12 12 13 13 13 13 13 13 13 14 14 14 14 14
15 16 16 16 16 15 15 14 14 15 15 14 14 14 15 14 14 14 15 15 14 14 14 13 13 12 12 12 13 13 13 13 13 14 14 14 14 14 14 14 14 14 14
17 16 17 17 17 17 17 16 15 16 15 15 15 15 15 15 15 15 15 16 16 15 15 14 14 13 13 13 13 13 14 14 14 15 15 15 15 15 14 14 14 14 14
18 17 17 18 17 17 17 17 16 16 15 15 15 15 15 15 15 15 16 16 17 17 16 15 14 14 13 13 13 14 14 15 16 16 15 15 15 15 15 15 15 15 14
19 18 18 18 19 18 17 17 16 15 15 15 15 15 15 16 16 16 17 17 17 17 16 16 15 14 14 14 15 15 16 16 17 17 17 16 16 16 16 16 16 16 16
19 19 19 19 19 19 18 17 16 16 16 16 16 16 17 17 18 17 18 17 18 17 16 16 16 16 16 16 16 17 17 17 17 18 17 16 16 16 17 17 17 17 17
20 20 19 19 19 19 18 18 17 17 17 17 17 18 18 18 18 18 18 18 18 17 17 17 17 17 16 16 17 18 18 17 17 17 17 16 16 17 18 18 17 17 17
20 20 20 19 19 18 18 19 18 18 18 18 18 18 18 19 18 18 18 18 17 17 17 17 17 17 18 18 18 18 18 18 18 18 17 17 17 17 17 17 17 17 17
21 20 20 19 19 19 19 19 19 19 18 18 18 18 19 18 18 18 18 17 17 17 18 18 19 19 19 20 20 19 18 18 18 19 19 18 18 17 17 17 17 17 17
21 20 20 20 20 20 20 20 21 21 20 19 19 19 19 19 19 18 18 17 17 17 17 18 19 20 19 20 20 19 20 20 20 19 19 18 18 18 17 18 18 18 18
20 20 20 21 21 21 21 22 22 22 22 21 20 19 19 19 19 19 19 19 19 19 18 19 20 20 20 20 20 21 21 20 20 19 19 19 19 19 18 18 18 18 18
20 21 21 21 22 22 22 22 22 22 21 20 20 20 20 20 19 20 20 20 20 20 20 20 20 20 20 20 21 21 21 21 20 20 20 20 20 20 19 19 19 18 18
21 22 22 23 23 23 23 23 22 22 21 21 21 21 20 20 20 21 21 21 22 22 22 21 21 21 21 21 22 22 22 22 22 22 22 21 21 20 19 19 19 19 19
22 22 23 23 23 23 23 23 22 23 22 22 21 21 22 22 22 22 22 23 23 23 23 22 22 22 22 22 22 23 23 22 23 23 23 22 22 21 21 21 21 20 20
23 23 23 23 23 23 23 23 23 23 23 23 23 22 23 23 23 23 23 23 23 23 23 23 23 23 24 23 23 22 22 22 23 23 23 23 23 23 23 22 22 22 22
25 24 24 23 23 23 23 24 23 23 23 23 23 23 23 22 23 23 23 23 23 24 24 24 24 25 25 24 24 24 23 24 23 23 23 23 23 23 23 23 23 23 23
25 24 24 24 23 23 23 23 23 23 23 23 23 22 23 23 23 24 24 24 24 25 25 25 25 25 24 24 24 25 25 24 24 24 25 25 25 24 24 24 24 24 24
25 25 24 24 24 23 23 23 23 23 23 23 23 23 23 23 24 24 24 24 24 24 24 25 25 24 24 25 25 25 26 26 26 26 27 27 26 26 26 26 26 26 26
25 25 25 25 25 24 24 23 23 23 22 22 23 23 23 24 24 24 24 24 24 24 24 24 24 24 24 25 25 25 25 26 26 27 28 28 27 27 27 27 26 26 26
26 26 26 26 25 25 24 24 23 23 23 23 23 23 24 24 24 24 24 24 24 23 23 23 23 23 24 24 25 25 25 26 26 27 28 28 28 28 28 27 27 28 28
26 26 26 26 26 25 25 24 23 23 23 24 25 25 25 25 25 25 24 23 23 23 24 24 24 24 24 24 25 25 25 26 27 27 27 27 27 28 28 28 29 29 30

GEFSMW_500_meanwind_270.txt.gz
Wind_Speed
11 12 12 13 13 13 13 13 13 13 14 14 14 14 14 14 14 14 14 13 14 13 14 14 13 13 14 13 13 13 13 13 13 13 13 13 13 13 14 13 12 12 12
12 12 12 13 13 14 13 13 14 14 14 14 14 14 14 13 14 13 13 13 14 14 13 14 14 14 14 14 13 13 13 13 13 13 13 13 13 13 14 14 14 13 13
11 12 12 13 13 14 14 14 14 15 14 14 14 14 14 14 15 14 13 13 13 14 14 13 14 14 14 14 14 13 13 14 13 13 13 13 13 13 13 14 14 14 14
11 11 12 12 13 14 14 14 14 14 14 14 14 14 15 14 14 14 14 14 13 14 14 14 14 14 14 14 14 14 14 14 13 13 13 14 14 14 14 14 14 14 14
11 12 12 12 13 13 13 13 14 14 14 14 14 15 15 15 15 15 15 15 14 14 14 14 14 14 14 14 14 14 14 15 14 13 14 14 14 14 14 14 14 14 14
12 12 13 13 13 13 13 14 14 14 14 14 15 15 15 15 15 15 15 15 15 15 15 15 15 15 15 14 15 15 15 15 15 14 14 14 15 15 16 15 15 14 15
13 13 14 14 14 14 14 15 14 14 14 14 15 15 15 15 15 15 15 15 16 16 15 15 16 15 15 16 16 15 16 15 15 14 14 15 15 16 16 16 16 16 15
15 15 16 16 16 16 16 16 16 16 15 16 16 16 16 16 16 16 16 16 17 17 17 17 16 16 16 16 16 16 16 15 14 14 14 15 16 16 16 17 17 17 16
16 16 17 17 17 17 17 17 17 17 17 17 17 17 17 18 18 18 17 17 18 18 17 17 16 17 17 16 16 15 16 15 15 16 16 17 17 17 17 17 17 17 17
17 17 17 17 17 18 18 18 18 18 19 19 19 19 19 19 19 18 18 17 18 18 18 18 17 17 16 17 17 17 16 16 17 18 18 18 18 18 18 18 18 17 17
19 18 18 18 18 19 19 19 19 19 19 20 20 20 20 20 20 20 19 19 19 19 18 18 18 18 18 18 18 18 17 18 19 19 19 19 18 19 19 18 18 18 18
18 18 19 19 19 19 19 20 20 20 20 20 20 20 20 20 20 20 20 20 20 19 18 19 19 19 19 19 19 19 19 19 19 19 20 20 20 19 19 19 18 18 18
18 18 19 19 19 19 20 20 20 20 20 20 20 20 20 20 21 20 20 20 20 19 19 19 20 20 20 20 20 20 20 21 21 21 21 20 20 19 19 19 19 18 19
18 18 19 19 20 20 21 20 19 20 20 20 20 20 20 20 20 20 21 21 21 21 20 20 20 20 20 20 20 20 21 22 22 22 21 21 20 20 20 19 19 19 20
19 20 20 20 20 20 20 20 20 21 21 20 20 20 21 21 21 21 21 22 22 22 21 21 21 20 20 20 20 21 21 21 22 22 22 21 20 20 20 20 20 20 20
21 21 21 21 21 21 21 21 22 22 21 21 20 20 21 21 22 22 22 22 22 22 21 21 21 21 21 21 21 22 22 22 23 22 22 21 20 21 21 21 21 21 20
22 22 22 22 22 22 22 22 22 22 21 21 21 21 21 21 21 21 22 22 22 22 21 20 21 22 22 22 23 23 23 23 23 22 22 22 22 22 22 22 21 21 21
22 22 23 23 23 23 23 22 22 22 22 21 21 22 21 21 21 21 21 21 22 21 21 21 22 22 23 23 23 23 23 24 23 23 23 24 23 23 23 22 22 22 22
23 23 23 23 24 24 24 23 22 22 21 21 21 21 21 21 21 21 22 22 22 22 22 22 22 23 24 24 25 25 24 24 24 24 24 24 24 24 23 23 22 22 23
24 24 24 24 24 24 24 24 23 22 21 21 20 20 20 21 21 22 22 22 22 23 23 23 24 24 24 24 24 24 24 24 24 24 23 23 23 23 23 23 23 24 24
24 25 25 24 24 24 24 23 22 22 22 21 20 20 21 21 22 22 22 23 23 24 24 24 24 24 24 24 25 25 25 24 24 24 24 24 24 23 23 24 24 25 25
25 25 25 24 24 23 23 22 22 22 22 21 21 21 21 22 23 23 24 24 25 25 25 25 24 25 25 26 26 25 25 25 25 25 25 25 25 25 25 25 26 26 26
26 25 25 25 24 24 23 23 22 22 22 22 22 22 22 22 23 24 24 25 26 26 26 26 25 25 25 25 25 25 25 26 26 25 26 26 26 26 27 26 26 27 27
26 26 25 25 25 24 24 23 23 23 23 23 23 23 23 23 24 24 25 26 26 27 26 26 26 25 26 26 25 25 25 26 26 25 25 26 26 26 27 27 28 28 28
26 26 26 25 25 24 24 24 24 24 24 24 24 24 24 24 24 25 26 26 26 26 26 26 26 26 26 26 27 27 26 26 26 26 26 26 26 26 27 28 29 29 29
26 26 26 26 25 25 25 25 25 25 24 24 24 24 25 25 25 26 26 26 26 26 26 27 27 27 27 27 27 27 27 27 27 26 26 27 27 27 28 29 29 28 29

GEFSMW_500_meanwind_276.txt.gz
Wind_Speed
14 14 14 14 14 14 13 14 14 14 15 14 15 15 14 14 14 14 14 14 15 15 16 16 15 15 15 15 15 14 14 14 14 14 13 13 13 13 13 13 13 13 13
14 14 15 14 14 14 14 14 14 14 14 14 14 15 15 15 15 15 15 15 15 16 16 16 16 15 15 15 14 14 14 14 14 14 13 13 13 13 13 14 14 13 14
14 15 14 14 14 14 14 14 14 14 14 14 15 15 15 15 15 15 15 16 16 16 16 16 15 14 14 15 14 14 14 14 14 14 14 13 13 13 14 14 13 14 14
14 14 14 14 14 14 14 14 14 14 14 14 15 15 15 15 15 15 15 16 16 16 15 15 15 14 15 15 15 15 15 15 15 14 14 14 14 13 13 13 14 13 13
13 14 14 14 14 14 13 14 14 15 15 14 14 14 15 15 16 16 16 16 16 15 14 14 14 15 15 15 16 16 15 15 15 15 15 15 15 14 14 13 14 14 13
13 13 13 13 14 14 14 15 15 15 15 14 14 14 15 15 16 17 17 16 16 16 15 15 15 16 16 16 17 17 17 16 16 16 16 15 15 15 14 14 14 14 14
13 13 14 14 15 15 15 16 16 16 15 15 16 16 15 16 16 17 17 17 17 17 17 17 16 17 17 17 17 17 17 17 16 16 16 16 16 15 15 15 14 14 15
13 14 14 15 15 16 16 16 16 17 17 17 17 17 17 17 17 18 18 19 18 18 18 18 18 18 18 17 17 18 18 18 18 17 17 17 17 16 16 15 16 16 16
14 14 14 15 16 16 16 16 16 17 17 17 17 17 17 17 18 18 18 19 19 19 19 19 19 18 18 19 19 19 19 19 19 19 18 18 17 17 17 17 17 17 18
14 14 14 14 15 15 16 16 16 16 16 17 17 18 18 18 18 18 18 19 19 19 20 19 19 19 20 20 20 19 19 19 20 19 18 18 18 18 18 18 18 18 18
15 15 15 15 15 16 16 16 16 17 17 17 17 17 18 18 18 18 18 19 19 19 20 20 19 19 19 20 20 19 19 19 19 19 19 19 19 18 19 19 19 18 18
16 16 16 16 17 17 17 17 17 17 17 17 17 17 18 18 19 19 19 19 19 20 20 20 20 20 20 20 20 19 19 19 19 19 19 19 19 19 20 20 20 20 20
17 17 17 17 18 18 18 18 18 18 17 18 18 18 18 18 18 19 19 20 20 20 20 20 20 20 20 20 20 20 21 21 20 20 20 20 20 20 19 20 20 20 20
18 18 18 19 19 19 19 19 19 18 18 18 19 19 19 19 19 19 20 20 20 20 20 20 21 20 20 20 20 20 21 20 20 20 20 20 20 20 19 19 20 20 20
18 19 19 19 19 19 19 19 19 19 19 20 20 20 20 20 20 20 20 20 20 20 20 21 21 21 20 20 20 20 20 20 20 20 20 20 20 20 20 20 20 21 21
19 20 20 19 19 20 20 20 20 20 20 20 20 20 20 20 20 19 20 20 20 20 20 21 21 21 20 20 21 21 21 21 21 21 21 22 22 22 22 22 21 21 21
20 20 20 20 20 20 20 20 20 20 20 21 20 20 20 20 20 20 20 20 19 19 20 21 21 21 21 21 22 22 21 22 22 21 22 22 23 23 23 23 23 22 22
21 21 20 20 20 20 20 19 20 20 20 20 20 20 20 19 19 20 19 19 20 20 21 21 21 21 22 22 23 22 22 23 23 23 23 23 23 23 22 22 22 22 22
21 21 21 20 20 20 20 20 20 20 20 20 20 20 19 19 19 19 19 20 20 20 21 21 22 22 22 22 22 22 23 23 23 23 24 24 23 23 23 23 23 23 23
20 20 20 20 21 21 20 20 20 21 20 20 20 20 20 19 19 20 20 20 20 21 21 21 22 22 23 23 23 23 24 24 25 25 25 25 25 24 25 25 25 24 24
21 21 20 20 21 21 21 21 21 21 21 20 20 20 20 20 20 20 20 21 21 21 21 22 22 22 23 23 24 25 25 26 26 26 26 26 26 26 27 26 26 26 26
22 22 21 21 21 22 22 22 22 22 22 21 21 21 21 21 21 21 21 21 21 21 21 22 22 23 24 25 25 25 26 26 26 27 27 27 27 27 27 27 27 27 27
23 23 23 22 22 22 22 22 22 22 22 22 22 22 22 21 22 22 22 22 22 22 22 22 23 24 24 25 25 26 26 27 27 28 28 28 28 28 28 28 27 27 27
24 24 24 23 23 23 23 23 22 22 22 22 22 23 23 22 22 23 22 22 22 23 23 23 24 24 25 25 26 27 27 27 28 28 27 27 27 27 28 28 28 27 28
25 25 25 24 23 23 23 23 23 23 23 23 23 23 24 24 24 23 23 23 23 23 24 24 25 25 25 26 27 27 27 27 27 27 27 27 27 27 28 28 28 28 28
26 25 25 25 24 24 24 24 24 24 24 24 23 24 24 24 24 23 23 24 24 24 25 25 25 25 26 26 27 27 27 27 27 27 27 27 28 28 28 28 28 28 28

GEFSMW_500_meanwind_282.txt.gz
Wind_Speed
16 15 15 15 15 15 15 16 15 15 14 14 14 13 13 13 13 14 13 14 14 14 15 15 16 16 16 16 16 15 15 15 14 14 14 14 13 13 13 13 13 13 14
16 16 16 16 16 15 15 15 15 15 15 14 14 13 13 13 14 14 14 15 15 14 14 15 15 16 16 16 15 15 15 14 14 14 14 15 14 14 14 14 14 14 14
16 16 15 16 16 16 16 15 15 15 15 14 14 14 14 14 15 15 15 15 15 15 15 15 15 15 15 15 15 15 14 15 14 14 14 15 15 15 15 14 15 15 15
17 16 15 16 17 17 16 16 16 16 15 15 15 15 15 15 15 15 16 16 16 16 16 15 15 15 15 15 15 15 15 16 16 15 14 15 16 15 15 15 15 15 15
17 17 17 17 17 17 17 16 16 16 16 15 15 16 16 16 16 16 16 17 17 17 16 16 16 16 15 15 15 16 16 16 16 16 16 16 16 16 16 15 15 15 16
17 17 17 17 17 17 17 17 17 17 17 17 16 17 17 17 16 16 16 17 17 17 16 16 16 16 16 16 16 16 16 16 16 17 17 17 17 17 16 16 16 15 16
17 16 17 17 17 17 17 17 17 17 17 17 17 17 17 16 16 16 16 16 16 16 17 17 17 17 17 17 17 16 17 17 16 17 17 17 17 18 17 17 17 17 16
16 16 16 16 16 17 16 16 16 16 16 17 17 17 16 16 16 16 16 16 16 17 17 17 18 18 17 17 17 17 17 17 17 16 17 17 17 17 17 17 17 17 17
17 17 17 17 17 17 17 16 16 16 16 16 16 16 16 16 16 16 16 16 16 17 17 17 17 18 17 17 17 17 18 18 17 17 17 18 17 17 18 18 18 18 17
18 18 18 18 18 17 17 17 16 16 16 17 17 17 17 17 16 17 17 17 17 17 17 17 17 18 18 17 18 18 18 18 18 18 18 18 18 18 18 18 18 18 18
19 18 18 18 18 18 18 17 17 17 17 17 17 17 17 17 17 18 18 18 17 17 17 18 17 17 18 18 18 18 18 19 19 19 19 18 18 18 19 19 19 19 19
19 19 19 18 18 18 18 17 17 17 17 17 17 17 17 18 18 18 18 18 18 19 19 18 18 18 18 18 18 19 19 19 20 20 20 19 19 19 19 19 20 19 19
20 19 19 18 18 18 17 17 17 17 18 18 18 18 18 18 18 18 19 19 19 19 19 19 19 19 19 19 19 19 20 20 20 20 20 20 20 20 20 20 20 20 19
21 20 19 18 18 18 18 18 18 18 18 19 19 19 19 19 19 19 19 19 19 19 19 18 19 19 19 19 20 20 20 20 20 20 20 20 20 20 20 20 20 20 20
21 20 20 20 19 19 19 19 19 20 20 20 19 19 19 20 20 20 19 19 18 18 18 19 19 19 20 20 20 20 21 21 21 20 20 20 20 21 21 21 21 21 21
21 21 21 21 20 20 19 20 20 20 20 20 20 20 20 20 20 19 19 19 18 18 19 19 20 20 20 20 20 20 21 21 21 20 20 20 21 21 21 21 22 22 22
22 22 22 22 21 21 21 21 21 21 20 20 20 20 21 20 20 19 19 19 19 19 19 20 19 20 20 21 21 21 21 21 21 21 21 21 21 21 22 22 23 23 23
23 23 23 23 22 22 22 21 22 22 21 21 20 20 20 20 20 20 20 20 20 20 20 20 20 20 21 21 22 22 22 23 23 22 22 22 22 22 23 23 24 24 23
24 24 24 23 23 23 23 23 22 22 21 21 21 21 21 20 20 20 21 21 21 21 21 20 21 21 21 22 22 22 22 22 22 22 23 23 23 24 24 25 24 24 24
25 25 25 25 24 24 24 24 23 23 22 21 21 21 21 20 20 21 21 21 21 21 21 21 22 22 22 22 22 23 23 22 22 22 22 23 24 24 25 25 25 24 25
26 26 26 26 26 25 25 24 24 23 23 22 22 22 22 22 22 22 22 22 22 22 22 22 22 23 23 23 23 23 23 23 23 23 23 24 25 25 26 26 26 26 26
27 27 27 27 26 26 26 25 25 24 24 23 23 22 22 22 22 22 22 22 22 23 23 23 23 23 23 23 23 22 23 24 23 24 24 24 24 25 26 27 27 27 27
28 27 27 27 27 27 26 26 25 25 24 24 24 23 23 23 23 23 23 23 23 23 24 23 24 23 23 23 24 24 24 24 24 25 25 25 25 26 27 27 27 27 27
28 27 27 27 26 26 26 26 26 25 25 25 24 24 24 23 23 23 23 23 23 24 24 24 24 24 23 23 24 24 24 25 25 25 25 25 26 26 26 26 27 27 27
29 28 28 27 27 27 26 26 26 26 25 25 25 25 25 24 23 24 24 24 24 24 24 25 25 25 25 25 26 26 26 26 26 26 26 26 25 26 26 27 27 27 27
30 29 29 28 28 28 27 27 26 26 26 26 25 25 25 25 24 24 24 23 23 24 24 24 25 25 26 27 26 26 26 26 26 26 27 26 26 26 26 26 27 28 28

GEFSMW_500_meanwind_288.txt.gz
Wind_Speed
12 12 12 12 12 12 12 12 12 12 12 12 12 12 12 12 12 11 11 11 12 12 12 12 12 13 13 13 13 13 13 13 13 13 13 13 13 13 13 14 13 13 14
12 12 12 11 11 12 13 13 13 13 13 13 13 13 12 12 12 12 12 11 12 12 12 12 12 13 13 13 13 13 13 13 13 13 13 14 14 14 14 14 14 14 14
10 11 11 11 12 13 14 14 13 12 13 13 13 13 12 12 12 12 12 12 12 12 12 12 13 13 13 13 14 13 13 13 13 14 14 14 15 15 15 15 14 14 14
11 11 11 12 12 13 13 14 13 13 13 13 13 13 12 12 12 12 12 12 12 12 12 12 12 13 13 14 14 14 14 14 14 14 14 14 14 15 16 16 16 15 15
11 11 11 12 12 13 13 14 14 14 13 13 13 13 13 13 13 12 12 12 12 12 12 12 13 13 13 13 14 13 14 14 14 14 14 14 14 15 16 15 15 15 15
12 12 12 12 13 14 13 13 14 13 13 13 13 13 13 13 13 13 13 13 13 13 13 13 13 14 13 14 14 14 14 14 14 14 15 15 15 16 15 15 15 15 15
12 13 13 14 14 14 14 14 13 13 13 14 13 13 13 13 13 14 14 14 14 14 14 14 14 14 14 14 14 14 14 14 14 14 14 15 15 16 16 16 15 16 16
13 13 15 15 14 14 14 14 14 14 14 14 14 14 14 13 13 14 14 15 15 15 14 14 14 14 14 15 15 15 15 15 15 15 15 15 16 16 16 16 16 16 16
13 14 15 15 15 15 15 15 15 15 15 15 14 14 14 14 14 14 15 15 15 15 15 14 15 15 15 15 16 16 15 16 16 16 16 16 16 16 17 17 17 17 17
15 15 15 15 15 16 15 15 15 14 14 14 14 14 14 14 15 16 16 15 15 15 15 15 15 15 15 15 16 16 16 16 17 17 17 17 16 16 17 18 19 19 18
15 15 15 15 16 16 16 16 15 14 14 14 14 14 15 15 15 16 16 16 15 15 15 16 16 16 16 17 17 17 17 17 17 17 17 18 18 17 17 18 18 19 19
16 16 15 15 15 16 16 16 15 14 15 15 15 15 15 15 15 15 16 16 16 16 16 17 17 17 17 18 18 18 18 18 18 18 19 19 19 18 18 18 18 18 19
16 16 16 15 15 15 16 16 15 15 15 15 16 16 16 16 16 16 16 16 17 17 17 17 17 17 18 18 18 18 18 19 19 19 19 20 20 19 19 19 19 19 19
16 16 16 16 16 16 16 16 16 16 16 16 16 16 16 17 17 17 17 17 17 17 17 17 17 17 18 18 18 19 19 19 20 20 20 20 19 19 19 19 19 19 20
16 16 17 17 16 17 17 17 17 16 17 17 17 17 17 18 18 18 18 18 17 18 18 18 18 18 18 19 19 19 19 19 19 19 19 19 19 19 19 19 19 20 21
18 17 17 17 17 17 18 18 18 18 18 18 18 18 18 18 18 18 18 18 18 18 18 18 18 18 19 19 20 19 19 19 19 19 19 19 19 19 19 20 20 20 20
19 19 19 18 18 19 18 19 19 19 19 20 19 19 19 19 19 19 19 19 19 19 18 18 18 18 18 19 19 19 19 19 19 19 19 19 19 19 19 20 20 20 21
20 21 21 21 20 20 20 20 20 21 20 20 20 20 20 20 20 20 20 20 20 19 19 19 20 19 19 19 18 19 19 19 20 19 19 18 19 19 19 19 20 20 21
23 23 22 22 22 22 22 22 21 21 21 21 21 20 20 21 20 20 20 20 20 19 19 19 20 20 20 20 20 20 20 20 20 20 19 19 19 19 19 20 21 21 22
23 23 23 23 23 23 23 23 23 22 22 22 22 21 21 21 21 21 21 20 20 20 20 20 20 20 20 20 20 20 20 20 21 20 20 20 20 20 20 21 22 22 22
24 24 24 24 24 24 24 24 23 23 22 23 23 22 22 22 22 22 22 21 21 21 20 20 20 20 20 20 20 20 20 21 21 21 21 22 22 22 22 22 23 23 23
25 26 25 25 25 25 24 24 24 24 23 23 23 23 23 22 22 22 22 22 21 21 20 20 20 20 20 20 20 21 21 22 22 22 22 22 22 22 23 24 24 25 24
26 26 26 26 26 25 25 25 24 24 24 24 23 23 23 22 22 22 22 22 22 21 21 22 21 21 21 21 21 22 22 22 23 23 23 23 23 23 24 25 25 26 25
27 26 27 26 26 26 26 25 25 24 24 24 23 23 23 23 22 22 22 22 22 22 22 22 22 22 22 22 22 23 23 23 23 23 23 23 24 25 26 26 26 26 25
28 28 28 27 27 26 26 26 26 26 25 25 24 24 24 24 23 23 23 23 24 23 23 23 23 23 23 23 24 24 24 24 25 24 24 24 25 25 26 26 26 26 26
29 29 29 29 29 28 28 28 28 27 26 26 25 25 25 25 24 24 24 24 25 25 25 24 24 24 25 25 25 25 25 25 25 25 25 25 25 26 27 27 27 26 26

GEFSMW_500_meanwind_294.txt.gz
Wind_Speed
10 10 10 10 10 10 10 10 10 10 11 12 12 13 13 13 13 12 12 12 12 12 12 13 13 12 13 14 13 13 13 13 13 13 13 13 13 14 14 14 14 14 14
12 11 10 10 9 9 10 10 10 11 11 12 13 13 13 13 13 12 12 12 13 13 13 13 14 14 14 14 14 13 13 13 13 13 14 14 14 14 14 14 14 14 14
11 10 10 9 9 9 10 11 11 11 11 12 13 13 13 13 13 13 13 12 12 13 13 13 13 13 14 13 13 13 13 12 12 13 13 13 14 15 15 15 15 15 15
11 10 10 10 10 10 10 11 12 12 12 12 13 13 13 13 14 14 14 13 13 13 13 14 14 14 14 14 14 13 12 12 12 13 13 14 14 15 15 16 16 16 16
11 11 11 11 11 11 11 12 12 12 13 13 13 13 14 14 14 14 14 14 14 14 14 13 14 14 14 14 14 14 13 13 13 13 14 14 15 15 16 16 16 17 17
11 12 12 12 12 12 12 12 12 13 13 13 13 14 14 15 14 14 14 14 14 15 15 15 14 14 14 14 14 14 14 14 14 14 15 15 15 16 16 16 17 17 17
12 12 13 12 12 12 12 13 13 13 13 13 13 14 14 14 13 13 13 13 14 15 15 15 15 15 15 15 15 15 15 15 15 15 15 15 16 16 17 17 17 17 17
13 13 13 13 12 13 13 13 13 13 13 13 14 15 14 14 13 13 13 13 14 15 15 15 16 16 16 15 16 16 16 15 16 16 16 17 17 17 17 17 17 17 17
14 13 13 13 13 13 14 14 14 14 14 14 15 15 14 14 13 13 14 14 15 15 16 16 16 16 15 15 15 15 16 16 17 17 17 17 17 16 17 18 18 18 17
14 14 14 14 14 14 14 14 14 14 14 15 15 15 15 14 14 14 14 15 16 16 15 15 16 16 16 16 16 16 16 17 17 17 18 18 18 18 18 18 18 18 18
15 15 15 15 15 15 14 14 15 14 14 14 15 15 15 15 15 15 15 16 16 16 16 16 16 16 17 17 17 17 17 18 18 18 18 18 19 19 19 19 19 19 19
16 16 16 16 16 15 15 15 15 15 15 15 15 15 15 15 15 15 16 16 16 16 16 16 16 17 17 17 18 18 18 19 19 19 19 19 19 19 19 19 19 19 19
17 17 17 17 16 16 16 15 15 15 15 16 16 15 15 15 15 16 16 16 16 16 16 16 17 17 17 18 18 18 19 20 20 20 20 20 20 19 19 19 19 19 19
18 18 18 18 18 17 17 16 16 16 17 17 17 16 16 16 16 17 17 17 17 17 17 17 17 17 17 18 18 18 18 18 19 20 20 20 19 19 19 18 18 18 19
19 19 19 19 18 18 17 17 17 18 18 17 17 17 17 16 17 17 17 17 18 17 18 18 18 17 17 18 18 18 18 18 19 20 20 19 19 19 18 18 17 17 18
20 20 19 19 19 19 18 18 18 18 18 18 17 17 17 18 18 18 18 18 18 18 18 18 18 18 18 18 19 19 19 19 20 20 19 19 18 18 17 17 17 17 18
21 20 20 20 20 20 20 20 20 19 19 18 18 18 18 18 18 18 18 19 19 18 18 18 18 18 18 19 19 19 20 19 19 19 19 19 18 18 18 18 18 18 18
21 21 21 22 22 22 21 21 21 21 20 18 18 18 18 18 19 19 19 20 20 19 19 19 19 19 19 18 19 20 20 20 20 19 19 19 19 19 19 19 19 19 19
21 21 22 22 22 23 22 22 22 21 20 20 19 19 19 19 19 20 20 20 20 20 20 20 20 19 19 19 19 19 19 20 20 19 19 19 19 19 19 20 20 20 20
22 22 21 22 22 23 23 22 22 22 21 21 21 21 20 20 20 21 21 21 21 21 21 21 20 20 20 20 20 20 20 20 20 19 19 19 19 19 19 20 20 21 21
23 23 23 23 23 23 22 22 23 22 22 22 23 23 23 23 23 22 22 23 23 23 22 21 21 21 20 21 20 20 20 20 20 20 20 20 20 20 21 21 22 22 22
24 25 25 24 24 24 24 24 24 24 24 24 24 24 24 24 24 24 25 24 24 23 23 22 21 21 21 21 21 21 21 21 21 20 20 21 21 21 21 22 22 23 23
26 26 26 26 26 26 26 26 26 26 25 25 25 25 25 25 26 26 26 25 25 25 24 23 23 23 22 22 22 22 22 22 21 21 21 21 22 22 23 23 23 24 25
28 28 28 27 27 27 27 27 27 27 27 26 25 26 26 26 26 26 26 25 25 25 25 24 24 24 24 24 24 23 23 23 23 22 22 22 23 24 24 24 24 25 25
28 29 28 29 28 28 28 28 28 28 28 27 26 26 26 26 26 26 26 25 25 25 26 26 26 26 26 26 25 25 25 25 24 24 23 24 24 24 25 26 25 26 26
28 28 28 28 28 28 29 28 29 29 28 28 27 27 27 27 27 27 26 26 26 25 26 26 27 27 27 26 26 26 26 26 26 26 26 26 25 25 26 26 26 26 27

GEFSMW_500_meanwind_300.txt.gz
Wind_Speed
11 12 12 12 12 12 11 11 11 11 11 11 11 11 11 11 11 12 12 12 12 12 12 13 13 13 13 13 13 13 13 13 13 13 13 13 13 13 13 13 14 14 14
13 13 13 13 12 12 12 11 11 11 11 12 11 11 11 12 12 12 12 12 12 12 13 13 14 14 14 14 14 14 14 13 13 13 14 14 14 14 14 14 14 15 15
13 13 13 13 13 13 12 11 12 11 11 11 12 11 11 11 12 12 12 12 13 13 14 14 13 14 14 14 14 14 14 13 14 13 13 14 14 15 15 15 16 16 16
13 13 13 12 12 12 12 12 12 11 11 11 11 11 11 12 12 12 13 12 13 13 14 14 13 13 13 13 14 14 14 14 14 13 13 14 14 15 15 16 16 17 17
14 14 13 13 13 13 13 13 12 12 12 12 12 12 12 12 13 13 13 12 13 13 13 13 13 13 13 13 13 14 14 14 14 14 13 14 14 15 15 16 16 17 18
14 14 14 14 14 14 14 14 13 13 13 13 13 13 13 13 13 13 13 13 13 13 13 13 13 13 13 14 14 14 14 14 14 14 14 14 14 15 16 16 17 17 18
14 14 15 15 15 15 14 14 13 13 13 14 14 14 14 14 14 13 13 14 14 14 14 14 14 14 14 14 15 14 14 14 14 14 14 14 14 15 16 16 18 18 18
14 14 14 15 15 15 15 14 13 13 14 14 14 15 15 15 15 15 14 14 15 15 15 14 15 15 14 15 14 15 15 15 14 15 15 15 16 16 16 16 18 19 19
15 14 15 15 15 15 14 14 14 14 15 15 15 15 15 15 15 15 15 15 15 15 15 15 16 16 15 15 15 15 16 15 15 15 15 16 16 16 16 17 18 19 20
15 15 15 15 15 15 14 14 15 15 15 16 16 16 16 15 15 15 15 15 16 15 15 16 17 17 16 16 16 16 16 16 16 15 15 16 16 16 17 17 17 18 19
16 16 16 16 16 15 15 16 16 16 16 16 16 17 17 17 16 16 16 16 16 16 16 16 17 17 16 16 17 17 17 17 17 16 16 16 16 16 17 17 17 17 17
17 17 17 17 17 16 16 16 16 16 16 16 17 18 18 17 17 16 16 16 16 16 16 16 16 17 17 17 17 17 17 18 18 17 17 17 16 16 17 17 17 17 17
18 18 18 17 17 17 17 17 18 17 17 16 17 18 18 17 17 17 17 17 17 17 17 17 17 17 17 17 17 18 18 19 19 18 18 17 17 17 17 17 17 17 17
19 19 19 19 19 18 19 19 19 18 18 18 18 18 18 18 18 18 18 17 18 18 17 17 17 17 17 17 17 17 18 18 19 19 18 17 17 17 17 18 17 17 17
20 20 21 21 21 20 20 20 20 19 19 19 19 19 18 19 19 19 19 19 18 18 18 18 18 17 17 17 17 17 17 17 18 19 18 18 18 18 18 18 17 17 17
21 21 21 22 21 21 21 20 20 20 20 21 21 20 20 20 20 20 20 20 19 19 18 18 18 18 18 17 18 17 17 17 18 18 18 18 18 17 18 18 17 16 16
22 23 22 22 22 22 21 21 20 21 22 22 22 22 21 22 21 20 20 20 20 20 19 19 19 18 18 18 18 18 18 18 18 18 18 18 18 18 18 17 17 16 16
22 23 23 23 23 22 22 21 21 21 22 23 22 22 22 22 23 23 21 20 19 19 19 19 19 18 18 18 18 18 18 18 18 18 18 18 18 18 17 17 17 17 17
23 23 24 24 23 23 22 22 22 22 22 23 23 22 22 22 22 22 22 21 20 20 19 19 19 18 18 18 18 18 18 18 18 18 18 18 17 17 17 18 18 18 17
24 24 24 25 24 24 24 24 23 23 23 23 22 21 21 21 21 21 22 22 22 21 20 19 19 19 18 18 18 18 18 18 18 19 19 19 18 18 18 19 18 19 19
25 25 25 25 24 23 23 23 23 23 22 22 22 21 21 21 21 21 21 21 21 22 22 21 20 20 20 20 20 19 18 18 18 19 19 20 20 19 19 19 19 19 19
26 26 26 24 24 24 23 23 23 22 23 23 23 23 23 22 22 21 21 22 22 22 22 23 23 23 22 22 21 20 20 20 20 20 20 20 21 21 20 20 20 20 21
27 27 26 25 25 25 24 24 24 24 24 24 24 24 24 23 23 23 23 23 23 23 23 24 25 24 24 24 23 23 23 23 22 22 21 22 22 22 22 22 22 22 22
28 27 27 26 26 26 26 25 25 25 25 25 25 25 25 25 24 24 24 24 24 24 25 25 25 25 26 26 26 26 26 25 25 24 24 24 24 24 23 24 24 24 24
28 28 28 27 27 27 26 26 26 27 27 27 27 27 27 26 25 25 26 26 25 26 26 26 27 27 27 27 27 27 27 27 27 27 26 27 26 25 25 25 25 26 26
28 28 28 28 27 27 27 27 27 27 27 27 27 27 27 27 27 27 27 26 27 27 27 27 27 28 28 28 28 28 28 28 29 29 29 29 28 28 27 27 27 27 27

GEFSMW_500_meanwind_306.txt.gz
Wind_Speed
14 13 14 13 13 13 14 13 13 13 13 12 12 13 13 12 13 12 12 12 12 13 13 13 13 14 14 14 15 15 15 15 14 15 14 14 14 14 14 14 14 14 14
14 14 14 15 15 14 14 14 13 13 12 13 13 13 12 12 12 12 12 12 12 13 13 14 14 14 14 14 14 14 14 14 14 14 14 13 13 14 14 14 14 14 14
15 15 15 15 15 14 14 14 14 13 14 13 13 13 13 13 13 12 12 13 13 13 14 14 14 14 14 14 14 13 13 13 13 13 13 13 13 14 14 14 14 14 15
15 15 15 15 15 14 14 14 13 13 13 13 14 14 13 13 12 12 13 14 14 14 14 14 14 15 14 14 14 13 13 13 13 14 14 14 14 14 14 14 15 15 15
16 16 16 16 16 16 15 14 14 14 13 13 13 13 14 14 14 14 14 15 15 15 14 15 15 15 15 15 14 13 13 13 14 14 14 14 15 15 15 15 15 16 16
16 17 16 16 16 16 15 14 14 14 14 14 13 13 13 14 14 15 15 15 15 14 15 15 15 15 15 15 14 14 13 14 14 14 14 14 15 15 15 15 15 16 16
16 16 17 16 16 16 16 15 15 15 14 14 14 14 14 14 14 15 15 15 15 15 15 16 16 16 15 15 15 15 15 15 15 15 15 15 15 15 15 15 15 15 15
17 17 17 17 17 17 17 16 16 16 16 16 15 15 15 15 15 16 16 15 15 16 16 17 17 16 16 16 16 16 16 16 16 16 16 16 16 16 16 16 16 16 16
18 18 17 17 17 18 17 17 17 17 17 17 17 17 16 16 16 16 17 17 16 16 17 17 17 17 17 17 17 17 17 18 17 17 17 17 17 17 17 17 17 17 17
18 18 18 18 18 18 18 18 18 18 18 19 18 18 17 17 17 17 17 17 18 18 18 18 18 18 18 18 18 18 18 18 18 18 17 17 18 18 18 18 18 18 18
19 18 18 19 19 19 19 19 19 19 19 19 19 19 18 19 19 18 18 18 18 18 18 18 19 19 19 19 20 19 19 18 18 18 18 18 18 19 18 18 18 18 18
21 20 20 20 20 20 20 20 20 20 20 19 19 19 19 19 19 19 19 19 19 19 19 19 20 20 20 20 20 20 19 18 18 18 18 18 18 18 18 19 18 17 17
21 21 20 20 21 21 21 21 21 21 21 20 19 19 20 20 20 19 20 20 20 20 20 20 21 20 19 19 19 18 18 18 18 18 18 18 18 18 18 18 18 17 17
22 22 21 21 22 22 21 21 21 22 21 21 21 21 20 21 21 21 20 20 20 21 21 20 20 19 19 18 17 18 18 18 18 18 18 18 18 18 18 17 16 16 17
23 23 23 22 22 22 22 21 21 22 22 21 22 22 22 22 21 22 22 22 21 21 21 20 19 19 19 18 17 17 17 17 18 18 18 18 18 18 18 17 17 16 17
24 24 24 24 24 23 23 23 22 22 22 21 22 22 23 22 22 22 23 22 21 21 21 21 20 19 19 19 18 17 17 17 18 17 18 18 18 18 18 18 18 17 17
25 25 25 25 24 24 24 24 24 23 22 22 22 22 22 22 22 23 23 23 23 22 21 20 20 20 19 19 19 18 19 19 18 18 18 18 18 17 18 18 18 18 17
26 26 25 25 25 25 25 24 24 24 23 23 23 23 23 22 22 23 23 24 24 24 22 21 21 20 20 20 20 20 19 19 19 18 18 18 18 18 18 18 19 19 18
26 26 26 26 26 25 25 25 24 24 24 24 24 23 23 23 23 23 23 23 23 23 23 22 22 21 21 21 22 21 21 20 19 19 19 19 19 19 19 19 18 18 18
26 26 26 26 26 26 26 26 25 25 25 24 24 24 24 24 24 24 24 24 23 23 23 23 23 23 23 23 23 23 23 21 20 20 20 20 21 20 20 20 19 19 19
27 27 27 27 26 26 26 26 26 26 26 26 25 25 25 25 24 24 24 24 23 23 22 23 23 23 24 23 23 24 24 23 22 21 21 21 21 22 21 22 22 21 20
27 27 27 27 27 27 27 27 26 26 26 26 26 26 26 26 25 24 24 24 24 24 23 23 23 24 24 24 24 24 24 24 23 23 23 23 23 23 23 23 23 24 23
28 28 28 28 28 28 28 27 27 26 26 26 26 26 26 26 26 25 25 25 25 25 25 24 24 25 25 25 25 25 26 25 25 25 25 25 25 25 25 25 25 25 25
28 29 29 28 28 28 29 29 28 27 27 26 26 26 26 26 26 26 26 26 26 26 26 26 26 26 25 26 26 26 26 25 25 26 26 26 26 26 27 27 27 26 26
28 29 29 28 28 28 28 28 28 28 28 28 28 28 28 27 27 27 27 28 28 28 27 28 27 27 27 27 27 27 27 27 27 27 27 27 28 28 28 28 28 28 27
27 28 29 29 29 29 29 29 29 29 30 30 30 30 29 29 29 29 29 29 29 29 29 29 28 28 29 29 30 30 29 29 29 29 29 29 29 28 28 28 28 28 28